ATLAS 5 CENTAUR DEB, 47249

Orbit data source: Space-Track

ATLAS 5 CENTAUR DEB, 47249 is space debris in HEO originally from a launch on Wed, 17 Oct 2018 UTC launched from the Air Force Eastern Test Range (AFETR). Debris objects in space refer to the collection of defunct objects orbiting the Earth. Examples of debris include non-operational satellites, rocket bodies, and fragments generated from explosions, collisions, or faulty payload assembly.

Loading next visibility...
Identifier
47249, 2018-079EH
Orbit
HEO
Country
Flag of USUS
Related business
Flag of USUnited Launch Alliance/Lockheed Martin (US)
Manufacturer
ULA Decatur
Mission
Spacecraft
Bus & Motor
Unknown
Mass
Unknown
Launch date (UTC)
2018-10-17 (8 years ago)
Launch vehicle
Unknown
Launch site
Air Force Eastern Test Range (AFETR)
Object type
Payload
Rocket body
Debris
Shape & HBR
Unknown shape, 1.1 m
Radar Cross Section
RCS unknown

Expand to show TLE details & history
Last TLE update: 5 months ago

TLE from 5 months ago
0 ATLAS 5 CENTAUR DEB
1 47249U 18079EH  26108.90603871 -.00000117  00000-0  00000-0 0  9992
2 47249  13.8085  25.8767 4817675 328.1409  10.2352  1.82676653 35929
Epoch: 2026-04-18T21:44Z
TLE epoch observation values (Epoch: 2026-04-18T21:44:41.744Z)
Latitude
-0.00007°
Longitude
-147.34548°
Altitude
9,006.246 km
Speed
6.141 km/s
True Right ascension
01h 43m 23s
True Declination
0° 00' 00"
Sunlit
Object was in daylight at epoch
Visualization orbit readout
Latitude
Unknown
Longitude
Unknown
Altitude
Unknown
Speed
Unknown
Apparent Right ascension
Unknown
Apparent Declination
Unknown
Sunlit
N/A
Visualization observer readout
Local Sidereal Time
05:42:04
Azimuth
Unknown
Elevation
Unknown
Doppler factor
Unknown
Orbital elements
Apogee altitude
35,510.157 km
Perigee altitude
8,271.851 km
Semi-major axis
28,269.141 km
Eccentricity
0.48177
Inclination
13.8085°
RAAN
25.8767°
Arg. of periapsis
328.1409°
True anomaly
32.25409°
Mean anomaly
10.2352°
Eccentric anomaly
19.40719°
Mean motion
0.45664 °/min
Orbital period
788.37 mins
BSTAR
0
Loading maneuver chart data...
Computing Atmospheric mass density...

Documentation

Showing up to 5 results
|